This is the latest recevied weather packets stored in our database for station/object SV9TNF-1. If no packets are shown the sender has not sent any weather packets the latest 1 day(s).
| Time | Temp. | Humidity | Pressure | Rain* | Wind** | Luminosity | Snow |
|---|---|---|---|---|---|---|---|
| 1778039419 | 17.78° C | 34% | 1004.1 hPa | 0 mm | 6.26 m/s, 315° | - | - |
| 1778039119 | 17.78° C | 34% | 1004.1 hPa | 0 mm | 7.15 m/s, 327° | - | - |
| 1778038819 | 17.78° C | 34% | 1004.1 hPa | 0 mm | 5.81 m/s, 326° | - | - |
| 1778038519 | 17.78° C | 33% | 1004.1 hPa | 0 mm | 7.15 m/s, 311° | - | - |
| 1778038219 | 17.78° C | 33% | 1004.1 hPa | 0 mm | 8.94 m/s, 319° | - | - |
| 1778037919 | 17.78° C | 33% | 1004.1 hPa | 0 mm | 8.94 m/s, 330° | - | - |
| 1778037619 | 17.78° C | 32% | 1003.7 hPa | 0 mm | 8.05 m/s, 324° | - | - |
| 1778037319 | 17.78° C | 33% | 1003.7 hPa | 0 mm | 8.05 m/s, 336° | - | - |
| 1778037018 | 17.78° C | 32% | 1003.7 hPa | 0 mm | 6.71 m/s, 335° | - | - |
| 1778036719 | 17.78° C | 34% | 1003.7 hPa | 0 mm | 8.94 m/s, 330° | - | - |
| 1778036418 | 17.78° C | 35% | 1003.7 hPa | 0 mm | 9.83 m/s, 354° | - | - |
| 1778036118 | 17.78° C | 34% | 1003.7 hPa | 0 mm | 6.71 m/s, 335° | - | - |
| 1778035818 | 17.78° C | 33% | 1003.7 hPa | 0 mm | 8.94 m/s, 331° | - | - |
| 1778035218 | 17.78° C | 33% | 1003.7 hPa | 0 mm | 9.39 m/s, 318° | - | - |
| 1778034918 | 17.22° C | 34% | 1003.7 hPa | 0 mm | 11.18 m/s, 312° | - | - |
| 1778034618 | 17.22° C | 34% | 1003.7 hPa | 0 mm | 10.28 m/s, 328° | - | - |
| 1778034318 | 17.78° C | 34% | 1003.7 hPa | 0 mm | 6.26 m/s, 268° | - | - |
| 1778034018 | 17.78° C | 33% | 1003.7 hPa | 0 mm | 8.49 m/s, 300° | - | - |
| 1778033717 | 17.78° C | 33% | 1003.7 hPa | 0 mm | 7.15 m/s, 329° | - | - |
| 1778033418 | 17.78° C | 34% | 1004.1 hPa | 0 mm | 8.49 m/s, 320° | - | - |
| 1778033117 | 17.78° C | 34% | 1004.1 hPa | 0 mm | 6.26 m/s, 328° | - | - |
| 1778032517 | 17.22° C | 34% | 1004.1 hPa | 0 mm | 7.15 m/s, 304° | - | - |
| 1778032217 | 16.67° C | 36% | 1004.1 hPa | 0 mm | 9.83 m/s, 327° | - | - |
| 1778031917 | 17.22° C | 36% | 1004.1 hPa | 0 mm | 10.28 m/s, 316° | - | - |
| 1778031017 | 16.11° C | 40% | 1004.1 hPa | 0 mm | 7.15 m/s, 267° | - | - |
* Rain latest hour (hover to see other rain measurements)
** Current wind speed in m/s (hover to see current wind gust speed)